Погода Александровское

Погода Александровское : погода сейчас, прогноз погоды и архив. Всё, что Вы хотите узнать о погоде Александровское!

Хотите узнать прогноз погоды Александровское? Тогда Вам сюда: Погода Александровское

Поиск расширенной информации на нашем сайте:

Другие новости

Новости СМИ2

Главная страница сайта

Новости сайта

03.07.2017

Напоминаем, что на нашем специализированном сайте Метеоцентр.Азия вы можете получить высокодетализированные автоматические прогнозы погоды по пунктам России, СНГ и мира в авиационном формате (включающие направление и скорость ветра, видимость, явления погоды, количество и форму облачности, нижнюю и верхнюю границу облачности).


Погода Александровское - сегодня

Время (UTC), дата Ветер
(°,м/с) 
Видим.   Явления Облачность Т
(°С)
Тd
(°С)
f(%) Тe
(°С)
Pmin
(гПа)
dP
(гПа)
Po
(мм)
O2
(г/м3)
Тmin Tmax R s Состояние
почвы
00 19.02.18 220 (ЮЗ) 50000 м  {снег}  10/5 600 м верхняя 
[Sc|Ci sp]
-10.3 -11.6 90 -12  1023.5  0.2  763  321  -10.7    0.3  42  равномерный
сухой снег
100% 
03 19.02.18 230 (ЮЗ) 20000 м    10/10 300 м 
[St]
-9.2 -10.6 90 -11  1024  0.5  763  319           
06 19.02.18 220 (ЮЗ) 20000 м  слаб. снег  10/5 300 м средняя, верхняя 
[St|Ac trans|Ci fib]
-7.6 -10.3 81 -10  1023.7  -0.3  763  317           
09 19.02.18 220 (ЮЗ) 10 км  слаб. ливневой снег  10/6 300 м кучево-дожд., верхняя 
[Cb calv|Ci sp]
-5.4 -8.4 79 -8  1023.5  -0.1  763  314           
12 19.02.18 240 (ЮЗ) 20000 м  в посл. час ливневой снег  10/5 300 м кучево-дожд., средняя, верхняя 
[Cb calv|Ac trans|Ci sp]
-6.6 -8.4 87 -8  1024.7  1.1  764  316    -5.3  0.3     
15 19.02.18 230 (ЮЗ) 50000 м  в посл. час ливневой снег  8/5 300 м кучево-дожд., верхняя 
[Cb calv|Ci fib]
-10.6 -11.6 92 -12  1025.8  1.1  765  322           
18 19.02.18 250 (З) 50000 м  слаб. ливневой снег  8/4 300 м кучево-дожд., верхняя 
[Cb calv|Ci fib]
-10.4 -11.5 92 -12  1025.9  0.1  765  321           
21 19.02.18 230 (ЮЗ) 35000 м  слаб. ливневой снег  10/8 300 м кучево-дожд., верхняя 
[Cb calv|Ci fib]
-9.1 -10.5 90 -9  1026.1  0.2  765  320           
00 20.02.18 280 (З) 50000 м  {ливн. осадки}  10/8 400 м кучево-дожд., верхняя 
[Cb calv|Ci fib]
-9.5 -10.7 91 -11  1026.8  0.7  765  321  -11    0.0  42  равномерный
сухой снег
100% 
06 20.02.18 090 (В) 10 км  снежные зёрна  10/5 300 м верхняя 
[St|Ci sp]
-11.3 -13.1 87 -13  1026.1  -0.8  765  323           
09 20.02.18 100 (В) 10 км  снежные зёрна  10/5 300 м верхняя 
[St|Ci sp]
-8.4 -10.2 87 -10  1025.5  -0.5  764  319           
12 20.02.18 100 (В) 10 км  слаб. снег  10/6 240 м верхняя 
[St|Ci sp]
-9.1 -10.4 90 -11  1024.7  -0.8  764  319    -8.2     
00 21.02.18 170 (Ю) 50000 м  слаб. снег  6/6 300 м 
[St]
-13 -14.4 89 -13  1024  0.2  763  324  -13.3    0.4  42  равномерный
сухой снег
100% 
06 21.02.18 100 (В) 20000 м  {снег}  10/0 верхняя 
[Ci fib]
-15 -16.9 85 -17  1023.8  -0.2  763  327           
09 21.02.18 090 (В) 20000 м    10/3 300 м верхняя 
[St|Ci fib]
-11.3 -13.6 83 -13  1023.2  -0.6  763  322           
12 21.02.18 090 (В) 20000 м  слаб. снег  10/6 1080 м верхняя 
[Sc|Ci fib]
-9.9 -11.7 87 -13  1022.2  -0.9  762  320    -9.9  0.0     
21 21.02.18 090 (В) 50000 м  позёмок{снег}  10/4 600 м верхняя 
[Sc|Ci fib]
-10.6 -12.5 86 -15  1017.3  -1.7  758  319           
00 22.02.18 090 (В) 5{11}  50000 м  слаб. снег  10/8 600 м верхняя 
[Sc|Ci fib]
-10.6 -13 82 -15  1015.4  -1.9  757  318  -10.8    0.7  45  равномерный
сухой снег
100% 
09 22.02.18 090 (В) 4{10}  20000 м  позёмок  10/5 1000 м верхняя 
[Sc|Ci sp]
-8.7 -11.1 83 -12  1012.3  -0.6  755  315           
12 22.02.18 080 (В) 2000 м  слаб. снег  10/10 800 м 
[Sc]
-9.9 -11.4 89 -13  1013.1  0.7  755  317    -8.5     
15 22.02.18 080 (В) 8000 м  слаб. снег  10/0 средняя 
[As op]
-10.9 -12.3 89 -14  1013.5  0.4  755  318           
00 23.02.18 110 (В) 50000 м  слаб. снег  6/4 400 м верхняя 
[St|Ci fib]
-17.1 -18.7 87 -17  1014.3  0.1  756  326  -17.5    44  равномерный
сухой снег
100% 
06 23.02.18 260 (З) 20000 м  слаб. снег  10/4 300 м верхняя 
[St|Ci fib]
-14 -16 85 -16  1014.5  0.1  756  322           
09 23.02.18 340 (С) 20000 м  слаб. снег  10/4 300 м верхняя 
[St|Ci fib]
-12 -14.7 80 -12  1014.7  0.3  756  320           
12 23.02.18 тихо ()   20000 м  слаб. снег  8/5 1000 м верхняя 
[St|Ci fib]
-17 -18.7 87 -17  1015.3  0.5  757  327    -11.5  0.0     
Время (UTC), дата Ветер
(°,м/с) 
Видим.   Явления Облачность Т
(°С)
Тd
(°С)
f(%) Тe
(°С)
Pmin
(гПа)
dP
(гПа)
Po
(мм)
O2
(г/м3)
Тmin Tmax R s Состояние
почвы

Для получения пояснительной информации подведите курсор к названию столбца.

ПОГОДА Александровское - архив

Всё, что Вы хотите узнать о погоде Александровское - удобно и подробно!

Выберите нужную дату (начиная с 1 января 2015* года) и нажмите кнопку "Найти".
Будут отображены архивные сводки погоды по пункту Александровское, начиная с указанной даты.


Отображать данные в формате CSV (для использования в таблицах Excel)


Внимание! Наш архив погоды предназначен исключительно для личного некоммерческого использования в познавательных целях. Если Вам необходимы официальные справки о состоянии погоды (для производственных, юридических, коммерческих и т.п. целей), обращайтесь в органы Росгидромета.

*Примечание: данная дата относится к архиву по метеостанциям СССР (Россия, СНГ, Балтия).
Архив по метеостанциям Зарубежной Европы и Азии (кроме Китая) хранится 10 дней, по другим регионам земного шара (Китай, Африка, Америка, Австралия, Океания) - 1 день.

Александровское - район местоположения метеостанции


Название, широта, долгота, высота метеостанции:
Александровское 60.4°ш. 77.9°д. 48 м над ур. моря [Российская Федерация]

Дополнительная информация

В oтличие oт бoльшинства пoгoдных сайтoв мы публикуем пoдрoбную метеoинфoрмацию в детальнoм прoфессиoнальнoм фoрмате.

Характеристики температуры и влажнoсти вoздуха измеряются на высoте 2 м в тени вдали oт зданий и деревьев.
Скoрoсть ветра измеряется на высoте 10 м (на урoвне рoста челoвека скoрoсть ветра ниже в 1.5-2 раза). Если метеoстанция нахoдится в гoрoде или в лесу, тo скoрoсть ветра занижена на 2-4 м/с пo сравнению с oткрытым местoм. Скoрoсть ветра над акватoриями крупных рек и oзёр, а также на вершинах хoлмoв на 2-5 м/с выше, чем в oбычных услoвиях.
Атмoсфернoе давление в разных тoчках местнoсти мoжет значительнo oтличаться oт давления на метеoстанции, в зависимoсти oт услoвий рельефа (при пoдъёме на 10 м давление пoнижается примернo на 1 мм рт.ст.).